Location: Étouvelles
(49.5207°N, 3.5808°E)
Time: 09:44:16
(UTC+00:00)

Cosmos 1844 Rocket - Pass Details

Date: 03 February 2023
Orbit: 825 x 843 km, 71.0° (Epoch: 23 March)

Event Time Altitude Azimuth Distance (km) Brightness Sun altitude
Rises 17:39:46 0° 332° (NNW) 3,378 6.0 -9.3°
Reaches altitude 10° 17:42:15 10° 336° (NNW) 2,440 5.2 -9.7°
Maximum altitude 17:47:46 61° 57° (ENE) 939 2.7 -10.6°
Drops below altitude 10° 17:53:16 10° 138° (SE) 2,424 4.8 -11.4°
Sets 17:55:43 0° 141° (SE) 3,355 5.5 -11.8°
